Precipitable_Water
1.18 1.16 1.13 1.04 0.97 0.92 0.85 0.77 0.70 0.64 0.63 0.60 0.55 0.51 0.49 0.46 0.40 0.35 0.33 0.43 0.39 0.34 0.34 0.39 0.37 0.35 0.37 0.36 0.43 0.43 0.31 0.26 0.31 0.33 0.34 0.36 0.32 0.26 0.28 0.26 0.19 0.25 0.26 0.27 0.27
1.25 1.24 1.22 1.18 1.11 1.07 0.99 0.87 0.78 0.72 0.67 0.61 0.58 0.56 0.54 0.54 0.43 0.32 0.45 0.49 0.40 0.34 0.28 0.33 0.32 0.32 0.29 0.30 0.36 0.35 0.30 0.31 0.32 0.33 0.33 0.34 0.31 0.28 0.27 0.20 0.17 0.20 0.23 0.24 0.21
1.40 1.33 1.29 1.27 1.24 1.19 1.09 0.98 0.88 0.80 0.72 0.66 0.62 0.58 0.55 0.56 0.46 0.49 0.55 0.49 0.42 0.34 0.32 0.34 0.33 0.31 0.27 0.28 0.29 0.32 0.29 0.32 0.30 0.31 0.31 0.28 0.29 0.30 0.25 0.20 0.17 0.18 0.19 0.19 0.20
1.49 1.46 1.41 1.35 1.31 1.27 1.23 1.14 1.03 0.91 0.80 0.72 0.67 0.64 0.59 0.57 0.39 0.52 0.53 0.48 0.37 0.36 0.35 0.35 0.35 0.31 0.30 0.28 0.29 0.26 0.29 0.30 0.29 0.30 0.30 0.27 0.25 0.22 0.22 0.20 0.21 0.22 0.20 0.20 0.20
1.48 1.47 1.47 1.47 1.39 1.31 1.26 1.22 1.17 1.05 0.93 0.80 0.72 0.70 0.65 0.59 0.58 0.63 0.56 0.48 0.43 0.42 0.38 0.35 0.33 0.31 0.29 0.31 0.30 0.26 0.28 0.29 0.29 0.29 0.27 0.25 0.21 0.20 0.18 0.21 0.23 0.22 0.21 0.23 0.24
1.49 1.47 1.46 1.45 1.45 1.41 1.34 1.28 1.24 1.13 0.99 0.85 0.77 0.77 0.69 0.56 0.65 0.57 0.53 0.51 0.44 0.42 0.38 0.36 0.32 0.33 0.31 0.29 0.28 0.29 0.30 0.30 0.29 0.27 0.25 0.25 0.22 0.23 0.22 0.25 0.25 0.22 0.22 0.24 0.28
1.44 1.40 1.44 1.44 1.42 1.42 1.40 1.36 1.29 1.19 1.05 0.89 0.80 0.78 0.65 0.65 0.72 0.60 0.53 0.51 0.44 0.42 0.38 0.35 0.37 0.33 0.32 0.31 0.34 0.32 0.29 0.29 0.28 0.24 0.24 0.28 0.23 0.22 0.24 0.26 0.23 0.22 0.22 0.26 0.35
1.20 1.27 1.37 1.37 1.38 1.38 1.38 1.37 1.33 1.25 1.14 0.96 0.87 0.74 0.56 0.80 0.80 0.63 0.57 0.45 0.44 0.42 0.39 0.36 0.39 0.36 0.34 0.35 0.36 0.34 0.34 0.29 0.28 0.26 0.26 0.26 0.21 0.23 0.24 0.22 0.21 0.21 0.24 0.31 0.42
0.75 0.89 1.05 1.14 1.23 1.29 1.30 1.33 1.32 1.27 1.18 1.01 0.86 0.69 0.58 0.77 0.66 0.59 0.46 0.41 0.38 0.42 0.41 0.39 0.38 0.35 0.36 0.34 0.31 0.31 0.28 0.24 0.21 0.24 0.22 0.22 0.21 0.21 0.22 0.20 0.19 0.22 0.29 0.36 0.40
0.71 0.72 0.77 0.92 1.10 1.21 1.20 1.19 1.29 1.22 1.04 0.98 0.86 0.68 0.66 0.55 0.58 0.53 0.48 0.41 0.35 0.37 0.37 0.38 0.33 0.33 0.35 0.32 0.28 0.23 0.21 0.21 0.19 0.20 0.20 0.18 0.20 0.21 0.21 0.19 0.20 0.26 0.33 0.37 0.40
0.65 0.70 0.72 0.79 0.83 0.99 1.05 0.89 0.82 0.76 0.77 0.74 0.74 0.67 0.65 0.56 0.56 0.43 0.42 0.34 0.33 0.35 0.34 0.36 0.30 0.30 0.34 0.30 0.27 0.25 0.22 0.20 0.19 0.19 0.17 0.16 0.17 0.18 0.18 0.18 0.23 0.30 0.34 0.37 0.40
0.59 0.67 0.69 0.73 0.86 0.90 0.89 0.72 0.75 0.74 0.61 0.67 0.74 0.73 0.76 0.75 0.52 0.37 0.37 0.34 0.29 0.26 0.33 0.31 0.28 0.33 0.33 0.30 0.27 0.24 0.21 0.18 0.18 0.18 0.16 0.16 0.16 0.17 0.17 0.20 0.27 0.31 0.34 0.36 0.38
0.51 0.59 0.68 0.70 0.79 0.78 0.73 0.74 0.88 0.91 0.57 0.50 0.63 0.62 0.65 0.72 0.60 0.48 0.42 0.37 0.31 0.24 0.28 0.29 0.32 0.31 0.29 0.27 0.26 0.23 0.20 0.19 0.18 0.18 0.17 0.16 0.14 0.15 0.18 0.26 0.30 0.34 0.37 0.39 0.38
0.49 0.55 0.60 0.67 0.63 0.68 0.61 0.78 0.85 0.89 0.48 0.41 0.44 0.49 0.51 0.53 0.48 0.72 0.54 0.42 0.36 0.27 0.24 0.25 0.34 0.29 0.26 0.24 0.25 0.20 0.23 0.19 0.17 0.16 0.13 0.15 0.11 0.16 0.19 0.24 0.29 0.33 0.36 0.38 0.37
0.45 0.56 0.53 0.60 0.58 0.53 0.68 0.78 0.81 0.70 0.23 0.43 0.47 0.70 0.59 0.45 0.43 0.53 0.64 0.44 0.35 0.36 0.30 0.21 0.24 0.25 0.21 0.23 0.23 0.19 0.22 0.20 0.17 0.14 0.13 0.12 0.12 0.14 0.18 0.22 0.27 0.33 0.36 0.39 0.38
0.46 0.54 0.56 0.51 0.54 0.61 0.72 0.76 0.73 0.32 0.19 0.32 0.43 0.45 0.51 0.50 0.45 0.45 0.48 0.53 0.40 0.36 0.35 0.30 0.29 0.25 0.22 0.23 0.22 0.21 0.19 0.18 0.16 0.13 0.09 0.14 0.16 0.16 0.17 0.22 0.28 0.33 0.37 0.39 0.36
0.51 0.51 0.60 0.54 0.35 0.60 0.67 0.56 0.31 0.23 0.30 0.20 0.31 0.37 0.40 0.41 0.43 0.47 0.39 0.38 0.28 0.27 0.28 0.31 0.27 0.26 0.24 0.21 0.22 0.21 0.18 0.14 0.12 0.12 0.11 0.21 0.19 0.20 0.26 0.30 0.31 0.33 0.37 0.38 0.36
0.52 0.53 0.53 0.54 0.56 0.58 0.56 0.38 0.24 0.27 0.25 0.31 0.34 0.38 0.30 0.38 0.40 0.44 0.38 0.32 0.35 0.32 0.30 0.26 0.20 0.25 0.26 0.24 0.21 0.20 0.19 0.14 0.12 0.13 0.15 0.22 0.17 0.22 0.32 0.35 0.36 0.38 0.39 0.36 0.34
0.55 0.50 0.48 0.52 0.60 0.55 0.39 0.25 0.20 0.25 0.32 0.29 0.32 0.37 0.35 0.32 0.38 0.42 0.39 0.28 0.34 0.34 0.28 0.28 0.25 0.29 0.28 0.27 0.26 0.20 0.17 0.20 0.17 0.20 0.17 0.19 0.23 0.30 0.33 0.34 0.36 0.36 0.36 0.35 0.35
0.49 0.47 0.41 0.59 0.64 0.49 0.30 0.24 0.23 0.31 0.31 0.35 0.26 0.31 0.28 0.33 0.33 0.36 0.37 0.31 0.28 0.30 0.33 0.31 0.27 0.30 0.28 0.27 0.28 0.24 0.27 0.20 0.22 0.15 0.14 0.15 0.19 0.20 0.29 0.33 0.36 0.37 0.36 0.36 0.35
0.50 0.38 0.42 0.61 0.62 0.41 0.20 0.22 0.22 0.21 0.30 0.32 0.33 0.36 0.33 0.30 0.29 0.31 0.32 0.32 0.31 0.33 0.35 0.33 0.33 0.29 0.28 0.24 0.24 0.25 0.25 0.27 0.27 0.22 0.18 0.16 0.20 0.34 0.33 0.36 0.37 0.36 0.37 0.37 0.32
0.46 0.30 0.52 0.63 0.34 0.34 0.25 0.22 0.23 0.19 0.24 0.29 0.36 0.36 0.37 0.39 0.32 0.30 0.30 0.34 0.35 0.36 0.31 0.34 0.35 0.29 0.29 0.32 0.32 0.28 0.24 0.28 0.23 0.21 0.24 0.21 0.22 0.40 0.39 0.39 0.38 0.37 0.38 0.35 0.31
0.33 0.39 0.55 0.57 0.26 0.27 0.31 0.25 0.25 0.20 0.21 0.24 0.28 0.38 0.42 0.36 0.36 0.38 0.36 0.38 0.35 0.35 0.33 0.34 0.31 0.27 0.29 0.30 0.31 0.27 0.28 0.29 0.29 0.26 0.21 0.18 0.23 0.39 0.39 0.39 0.41 0.38 0.35 0.33 0.29
0.34 0.26 0.40 0.45 0.41 0.29 0.24 0.24 0.20 0.24 0.23 0.27 0.27 0.35 0.34 0.37 0.40 0.35 0.36 0.42 0.39 0.36 0.39 0.38 0.32 0.28 0.25 0.29 0.31 0.28 0.28 0.28 0.28 0.24 0.23 0.22 0.30 0.35 0.37 0.37 0.38 0.36 0.34 0.32 0.27
0.36 0.27 0.39 0.26 0.29 0.32 0.31 0.25 0.18 0.17 0.23 0.28 0.28 0.30 0.32 0.32 0.33 0.34 0.33 0.40 0.43 0.40 0.38 0.37 0.30 0.31 0.32 0.35 0.35 0.29 0.28 0.27 0.27 0.29 0.24 0.25 0.27 0.33 0.36 0.36 0.35 0.35 0.32 0.28 0.24
0.32 0.25 0.32 0.34 0.34 0.28 0.28 0.27 0.22 0.20 0.22 0.20 0.21 0.20 0.30 0.33 0.34 0.30 0.34 0.36 0.34 0.40 0.39 0.44 0.33 0.36 0.33 0.36 0.33 0.27 0.29 0.29 0.26 0.27 0.27 0.27 0.25 0.37 0.37 0.37 0.33 0.29 0.28 0.24 0.24
0.42 0.35 0.30 0.25 0.33 0.27 0.25 0.23 0.19 0.18 0.19 0.19 0.21 0.22 0.22 0.23 0.37 0.42 0.44 0.43 0.40 0.35 0.34 0.33 0.32 0.30 0.26 0.35 0.33 0.24 0.25 0.21 0.26 0.26 0.26 0.24 0.30 0.37 0.32 0.29 0.28 0.27 0.27 0.26 0.25
Wind_Speed
21 20 19 19 19 18 18 18 18 18 18 18 18 18 18 18 18 16 15 14 14 15 15 15 15 15 14 13 12 12 10 11 13 10 11 11 11 13 11 11 13 11 11 12 15
23 22 22 21 21 21 20 20 20 19 18 19 18 19 19 19 17 17 16 15 15 16 16 16 16 15 15 15 14 11 11 13 11 11 12 14 13 13 13 13 12 13 14 14 16
25 24 24 24 24 23 22 21 20 19 19 19 19 19 19 19 16 14 13 14 15 14 14 16 16 16 16 16 16 15 15 15 14 12 13 15 15 16 16 15 14 13 14 16 16
28 27 27 26 24 24 23 22 21 20 20 20 20 20 21 17 15 13 14 15 16 17 17 17 17 17 16 16 17 17 18 16 15 13 15 16 18 18 16 14 13 13 15 17 16
31 30 29 28 27 26 25 24 23 22 22 22 21 21 18 17 19 17 17 18 17 16 17 17 16 16 16 16 16 15 15 17 16 15 16 16 16 17 17 14 12 13 14 14 15
32 32 31 30 29 28 26 25 25 24 23 23 22 22 19 19 16 15 16 17 17 15 16 16 15 16 16 16 15 15 15 17 17 16 15 13 15 14 14 12 12 13 12 13 12
33 31 30 29 30 29 29 27 26 25 24 24 23 22 21 21 20 18 17 17 17 16 15 14 15 14 14 15 15 16 17 19 20 19 15 11 13 14 14 11 11 11 13 11 11
35 35 34 33 32 31 30 29 28 27 26 25 24 23 22 23 22 22 20 17 16 16 15 15 14 14 14 15 14 15 16 16 16 17 14 9 11 8 10 12 11 11 10 10 12
37 36 37 36 34 32 32 31 30 29 28 26 24 22 22 18 17 18 16 16 15 15 15 15 14 14 13 12 12 13 12 12 12 8 10 9 11 13 13 14 12 11 11 12 15
38 38 37 38 37 35 33 32 30 30 27 26 26 23 21 17 17 16 17 16 14 14 14 13 13 13 12 11 11 9 13 14 12 12 10 12 12 13 16 15 13 12 13 15 17
39 39 39 38 39 37 35 33 31 29 30 28 24 23 21 18 18 17 17 16 17 15 15 15 12 14 16 15 16 15 13 11 9 10 11 13 15 18 18 15 13 13 14 16 18
38 39 39 39 39 37 35 33 31 31 31 33 35 35 32 28 24 20 19 17 18 18 17 16 17 17 17 15 14 13 13 14 15 9 12 15 19 21 17 14 13 13 15 16 19
39 39 39 38 38 38 38 35 33 30 33 36 36 37 33 32 34 27 24 22 19 20 19 20 18 19 18 15 14 15 15 17 17 17 17 19 21 18 15 11 12 14 16 17 18
40 40 38 36 38 38 39 38 35 34 30 35 34 36 36 36 37 35 29 25 23 23 20 22 22 22 17 16 15 17 14 14 14 14 16 13 17 17 13 12 14 16 16 17 21
40 40 38 37 36 36 37 36 35 32 28 30 30 28 27 32 26 29 32 30 28 25 21 21 17 19 20 18 19 18 14 15 16 17 19 20 18 19 18 16 15 16 16 18 23
42 41 39 38 38 36 33 33 31 29 32 32 32 30 29 32 32 23 26 31 30 28 29 27 24 20 21 19 19 16 15 17 18 17 20 21 19 18 19 18 16 16 16 20 25
42 41 41 39 38 37 35 32 31 34 33 40 35 31 33 33 36 32 28 32 28 27 30 27 30 24 21 18 18 16 14 15 15 16 19 14 14 16 10 12 14 15 17 21 25
42 42 43 42 39 36 35 33 34 36 43 33 31 34 36 34 36 35 31 31 35 26 19 23 21 25 22 22 20 20 18 17 17 15 17 17 14 14 11 12 14 15 18 22 26
42 41 43 42 40 38 37 38 38 38 36 41 41 33 33 36 32 33 36 33 34 33 25 21 25 21 23 21 21 21 20 20 18 19 15 15 10 10 13 15 16 16 19 22 26
41 40 42 41 41 40 40 41 39 39 35 35 42 35 37 35 32 31 31 34 35 34 32 21 18 20 20 19 22 19 17 15 17 16 18 18 15 17 16 15 15 17 19 23 26
41 39 39 41 39 40 41 42 43 43 38 34 34 34 32 33 37 34 32 30 30 31 32 29 20 19 20 22 18 19 20 20 18 19 16 14 12 13 13 15 16 18 20 24 26
40 40 40 40 39 39 41 44 42 40 41 39 33 34 36 29 30 36 35 30 26 28 33 31 24 26 27 23 25 24 23 23 18 17 19 15 15 14 14 16 17 19 22 24 26
42 39 41 41 39 38 38 42 42 38 41 36 38 35 34 35 30 28 27 29 27 22 25 27 26 23 23 24 25 24 27 27 24 20 20 16 17 16 15 16 18 19 23 24 25
41 38 38 43 40 43 39 40 42 41 42 38 34 36 32 31 32 29 31 25 26 27 22 24 24 25 28 21 23 25 28 27 26 22 19 19 13 16 17 18 18 20 23 24 25
43 42 34 37 45 40 41 38 41 39 40 37 34 35 32 30 31 32 32 32 27 26 25 25 23 23 24 24 26 25 25 29 27 25 20 20 15 17 19 20 20 21 23 24 25
41 43 42 36 44 44 43 40 37 39 33 40 38 37 34 35 33 32 28 31 33 33 27 28 30 24 29 29 26 24 22 23 27 24 25 21 20 19 19 20 20 22 23 23 24
44 44 42 42 35 41 42 44 43 38 38 39 36 33 35 36 33 30 29 30 27 29 30 28 26 24 25 28 29 29 25 21 21 22 23 24 21 20 20 20 21 20 21 23 23
Wind_Direction
272 273 276 279 281 285 287 288 291 292 294 295 297 298 297 295 292 281 275 276 275 283 282 283 284 281 276 273 269 265 266 261 261 256 252 276 272 281 275 284 288 268 267 274 290
269 271 273 276 279 282 285 286 288 289 291 292 295 296 296 297 289 279 274 274 278 283 279 283 285 286 271 270 270 258 249 251 265 259 264 274 277 276 278 289 279 275 284 288 288
267 269 272 273 277 279 281 283 285 287 288 291 293 295 294 294 287 282 270 274 278 280 280 282 281 279 276 273 265 256 250 256 266 264 269 271 276 278 277 278 276 274 283 287 292
266 268 271 272 274 275 277 280 282 284 287 289 291 293 293 284 282 279 273 275 277 280 280 279 280 276 274 269 268 259 257 258 265 269 266 269 273 277 275 269 269 277 282 290 296
264 266 267 269 271 272 274 276 278 281 283 286 288 291 287 280 275 277 274 275 276 279 275 279 280 277 273 272 276 264 262 262 265 269 269 269 270 269 271 263 270 279 286 291 293
263 264 265 266 268 270 272 274 275 278 281 283 286 287 279 279 275 275 276 273 275 274 277 278 273 278 272 267 267 271 273 268 268 268 264 265 270 266 270 252 268 278 286 291 288
262 263 264 265 266 267 269 272 273 276 279 281 282 280 276 270 275 275 274 274 270 274 273 276 276 273 276 273 272 273 275 273 268 264 259 264 279 265 247 254 266 275 287 285 292
261 262 262 264 266 266 268 269 271 273 274 278 279 277 273 275 272 272 266 269 266 267 269 271 275 273 266 270 275 273 274 270 265 251 249 246 269 263 247 259 269 279 282 284 299
263 262 261 262 262 264 266 267 268 269 272 272 273 273 275 272 266 265 260 263 262 263 266 268 270 265 271 263 275 264 266 258 265 242 231 240 263 258 271 267 268 277 278 288 298
262 262 262 260 259 261 264 264 266 267 266 265 266 273 267 267 264 260 258 257 262 259 267 261 262 261 260 253 258 252 252 265 257 242 240 245 258 274 281 278 265 273 283 291 304
263 262 261 260 258 258 260 263 261 263 258 254 256 258 268 268 264 257 250 257 259 257 254 258 258 256 250 247 253 260 268 267 264 257 254 261 270 280 281 267 266 277 288 296 302
263 261 261 260 256 255 256 257 259 257 265 257 257 258 262 262 265 254 251 251 252 252 254 260 255 258 254 258 255 258 265 267 266 260 268 272 278 281 276 262 262 275 287 296 301
263 262 260 259 255 253 254 255 255 263 261 260 257 255 255 251 256 251 246 249 253 250 250 248 256 245 263 244 252 258 260 264 265 271 272 280 281 277 270 249 269 279 285 298 300
262 261 258 255 254 253 253 252 254 257 266 261 257 257 249 249 253 248 245 244 249 251 249 255 252 248 251 251 250 258 263 273 270 271 267 276 283 280 240 258 271 278 288 296 303
260 258 255 253 254 253 255 249 251 253 256 255 252 252 248 234 250 245 239 241 243 245 245 249 256 246 246 249 253 261 261 268 270 273 278 273 276 271 245 260 268 276 287 301 306
258 256 253 253 253 253 249 245 245 245 244 252 251 250 246 237 241 249 242 239 244 250 251 251 252 248 247 252 254 250 263 267 267 267 274 265 255 276 260 243 264 274 288 303 306
256 254 251 251 253 248 244 243 245 240 247 248 249 249 248 245 240 241 244 234 237 243 247 249 245 245 246 249 252 253 256 269 272 262 267 272 255 271 257 251 262 273 289 300 306
255 253 252 250 249 244 239 240 240 245 241 250 248 248 244 244 245 238 240 238 234 240 250 243 244 234 242 244 247 245 244 252 263 261 277 268 263 254 248 256 267 276 287 298 307
254 253 251 249 244 240 238 241 242 243 246 245 250 251 248 243 245 234 238 242 239 234 241 243 245 242 235 244 238 250 248 254 265 267 270 261 268 258 253 271 283 289 295 304 309
252 251 249 244 240 238 239 240 242 243 251 250 241 242 242 242 237 234 237 244 239 238 235 249 248 242 233 238 245 246 251 254 261 263 262 261 248 255 254 271 282 287 297 305 310
247 249 248 237 235 236 237 239 241 242 243 243 244 242 243 240 236 237 240 241 237 236 232 235 241 245 235 242 239 246 252 251 256 255 262 268 263 250 254 269 280 291 300 303 310
245 243 241 231 234 237 238 235 240 239 238 241 243 242 238 241 241 239 237 236 237 239 233 234 240 241 239 243 248 251 249 249 253 262 257 255 264 260 261 269 278 291 298 303 310
240 242 235 230 235 235 238 236 238 237 235 235 236 234 237 238 238 236 236 233 231 238 235 228 237 240 245 252 252 252 252 248 249 254 256 256 261 257 265 271 283 295 299 303 308
236 237 235 230 234 233 232 235 234 235 236 235 239 237 238 238 236 240 235 235 238 233 236 233 238 239 243 251 250 254 250 249 245 250 251 253 249 253 264 276 287 294 297 304 309
230 231 233 231 227 229 229 232 231 233 231 232 236 234 233 237 239 236 236 232 234 236 238 236 245 249 252 262 263 250 252 246 245 244 245 251 249 255 265 277 285 292 297 305 310
228 227 228 234 226 226 227 230 231 232 231 229 233 234 234 237 236 240 238 239 238 240 239 234 246 250 259 255 256 256 248 246 245 248 249 251 257 258 267 276 284 293 300 304 308
228 229 229 229 231 227 227 229 230 231 231 231 231 234 235 237 241 245 244 241 237 235 234 235 238 242 254 249 255 256 246 251 251 251 252 254 259 261 271 276 282 290 297 301 306